Portada
METAR-TAF:

METAR-TAF

Aeroports :

Kulu / Manali, Índia

latitud: 31-52-36N, longitud: 77-09-16E, altitud: 1089 m

METAR: manca

Hora: 20:36 (15:06 UTC)

Pronòstic

L'informe es va fer fa 10 hores i 6 minuts, a les 05:00 UTC
Pronòstic vàlid del 20 a les 06 UTC al 20 a les 15 UTC
Vent kt del Nord
Visibilitat: 6000 m
Cel ennuvolat a una alçada de 3000 ft
Cel cobert a una alçada de 8000 ft

TAF: VIBR 200500Z 2006/2015 00000KT 6000 BKN030 OVC080

Observacions i pronòstics meteorològics de més de 4000 aeroports (METAR i TAF).

Les estacions disponibles són els punts grocs i vermells al mapa.

Posi el ratolí al punt desitjat per veure el nom de l'estació.

Feu clic per veure les observacions i els pronòstics meteorològics.

Per canviar el mapa: feu clic els botons verds amb una creu de color negre per apropar; al botó verd amb un guió per allunyar la imatge; o en les fletxes verdes per a mapes adjacents.


METAR-TAF: